Loyal, WI (54446)

2:39 AM CST on February 06, 2016 (GMT -0600)
Backyard, N. Andrews Ave | | Change Station
CLOSE
Current Station
Personal Weather Station
Location: Greenwood, WI
Elevation: 1161 ft
Nearby Weather Stations

Elev 1161 ft 44.77 °N, 90.60 °W | Updated 26 seconds ago

Overcast
Overcast
22.5 °F
Feels Like 16 °F
N
4.8
Wind Variable Wind from SW
Gusts 6.7 mph

Today
High -- | Low -- °F
--% Chance of Precip.
Yesterday
High -- | Low -- °F
Precip. -- in
Pressure 30.13 in
Visibility 9.0 miles
Clouds Overcast 900 ft
Windchill 16 °F
Dew Point 16 °F
Humidity 75%
Rainfall 0.00 in
Snow Depth Not available.
7:15 AM 5:17 PM
Waning Crescent, 6% visible
SPECI KMFI 060822Z AUTO 24012KT 9SM OVC009 M05/M08 A3013 RMK AO2 T10501083
Pressure 30.13 in
Visibility 9.0 miles
Clouds Overcast 900 ft
Windchill 16 °F
Dew Point 16 °F
Humidity 75%
Rainfall 0.00 in
Snow Depth Not available.
7:15 AM 5:17 PM
Waning Crescent, 6% visible
SPECI KMFI 060822Z AUTO 24012KT 9SM OVC009 M05/M08 A3013 RMK AO2 T10501083

10-Day Weather Forecast

Almanac

Astronomy

Feb. 06, 2016 Rise Set
Actual Time
Civil Twilight
Nautical Twilight
Astronomical Twilight
Moon
Length of Visible Light
Length of Day
Tomorrow will be .
, % of the Moon is Illuminated

Today's Extremes

State Highs State Lows

Community

WunderPhotos

Upload Photos

1,890,933 photos uploaded!

WunderBlog® & News

Nearby

Air Quality

  Air Quality AQ Index Pollutant
Not available.

Snow Depth

Station Depth Elevation

Earthquake Activity

City Distance Mag. Time & Date
Minimum magnitude displayed is 2.5.

Coastal Water Temperatures

Place Temperature

Stations

Nearby Weather Stations

Station Location Temp. Windchill Dew Point Humidity Wind Precip. Elev Updated Type
                   

Watches & Warnings

There are currently no watches in effect.